Weather History for Harlingen, TX

Change the Weather History Date:

Wednesday, November 7, 2012

  Actual Average Record
Temperature  
Mean Temperature 73 °F 71 °F  
Max Temperature 89 °F 83 °F 92 °F (1947)
Min Temperature 56 °F 60 °F 35 °F (1925)
Degree Days  
Heating Degree Days 0 1  
Month to date heating degree days 0 2  
Since 1 July heating degree days 4 5  
Cooling Degree Days 8 7  
Month to date cooling degree days 76 52  
Year to date cooling degree days 4603 3828  
Growing Degree Days 22 (Base 50)    
Moisture  
Dew Point 55 °F    
Average Humidity 60    
Maximum Humidity 93    
Minimum Humidity 26    
Precipitation  
Precipitation 0.00 in 0.08 in 1.00 in (2009)
Month to date precipitation 0.00 0.61  
Year to date precipitation 13.24 23.03  
Sea Level Pressure  
Sea Level Pressure 30.10 in    
Wind  
Wind Speed 6 mph (SE)    
Max Wind Speed 18 mph    
Max Gust Speed 23 mph    
Visibility 10 miles    
Events      
T = Trace of Precipitation, MM = Missing Value Source: NWS Daily Summary

Daily Weather History Graph

Daily Weather History Graph

Search for Another Location

Airport:

Trip Planner

Search our weather history database for the weather conditions in past years. The results will help you decide how hot, cold, wet, or windy it might be!

Date:

Astronomy

Nov. 07, 2012 Rise Set
Actual Time 6:43 AM CST 5:44 PM CST
Civil Twilight 6:19 AM CST 6:08 PM CST
Nautical Twilight 5:52 AM CST 6:36 PM CST
Astronomical Twilight 5:24 AM CST 7:03 PM CST
Moon 12:17 AM CST (11/7) 1:18 PM CST (11/7)
Length of Visible Light 11h 48m
Length of Day
11h 00m
Last Quarter, 43% of the Moon is Illuminated
Nov 7
Last Quarter
Nov 13
New
Nov 20
First Quarter
Nov 28
Full
Dec 6
Last Quarter

Hourly Weather History & Observations

Time (CST) Temp. Heat Index Dew Point Humidity Pressure Visibility Wind Dir Wind Speed Gust Speed Precip Events Conditions
12:52 AM 63.0 °F - 55.9 °F 78% 30.11 in 10.0 mi Calm Calm - N/A   Clear
1:52 AM 62.1 °F - 57.9 °F 86% 30.11 in 10.0 mi Calm Calm - N/A   Clear
2:52 AM 62.1 °F - 57.0 °F 84% 30.10 in 10.0 mi Calm Calm - N/A   Clear
3:52 AM 61.0 °F - 55.9 °F 83% 30.11 in 10.0 mi Calm Calm - N/A   Clear
4:52 AM 60.8 °F - 55.4 °F 82% 30.11 in 10.0 mi Calm Calm - N/A   Clear
5:52 AM 60.1 °F - 55.9 °F 86% 30.11 in 10.0 mi Calm Calm - N/A   Clear
6:52 AM 57.9 °F - 55.0 °F 90% 30.12 in 10.0 mi Calm Calm - N/A   Clear
7:52 AM 66.0 °F - 60.1 °F 81% 30.15 in 10.0 mi Calm Calm - N/A   Clear
8:52 AM 77.0 °F - 57.9 °F 52% 30.16 in 10.0 mi SE 5.8 mph - N/A   Clear
9:52 AM 81.0 °F 80.8 °F 55.9 °F 42% 30.16 in 10.0 mi SSE 9.2 mph - N/A   Clear
10:52 AM 82.9 °F - 51.1 °F 33% 30.15 in 10.0 mi SSW 5.8 mph - N/A   Clear
11:52 AM 86.0 °F - 51.1 °F 30% 30.12 in 10.0 mi SSE 4.6 mph - N/A   Clear
12:52 PM 87.1 °F - 52.0 °F 30% 30.08 in 10.0 mi SSE 8.1 mph - N/A   Clear
1:52 PM 87.1 °F - 48.0 °F 26% 30.06 in 10.0 mi East 8.1 mph 17.3 mph N/A   Clear
2:52 PM 87.1 °F - 52.0 °F 30% 30.04 in 10.0 mi ESE 12.7 mph 18.4 mph N/A   Clear
3:52 PM 84.9 °F - 51.1 °F 31% 30.04 in 10.0 mi East 16.1 mph - N/A   Clear
4:52 PM 82.0 °F - 52.0 °F 35% 30.05 in 10.0 mi ESE 15.0 mph - N/A   Clear
5:52 PM 75.9 °F - 55.0 °F 48% 30.06 in 10.0 mi ESE 11.5 mph - N/A   Clear
6:52 PM 73.0 °F - 55.9 °F 55% 30.07 in 10.0 mi SE 9.2 mph - N/A   Clear
7:52 PM 71.1 °F - 57.9 °F 63% 30.09 in 10.0 mi SE 8.1 mph - N/A   Clear
8:52 PM 66.9 °F - 57.0 °F 70% 30.10 in 10.0 mi SE 8.1 mph - N/A   Clear
9:52 PM 62.1 °F - 55.0 °F 78% 30.11 in 10.0 mi SSE 8.1 mph - N/A   Clear
10:52 PM 62.1 °F - 54.0 °F 75% 30.11 in 10.0 mi South 6.9 mph - N/A   Clear
11:52 PM 61.0 °F - 54.0 °F 78% 30.10 in 10.0 mi SSE 6.9 mph - N/A   Clear